Knox, IN

2:53 AM CST on February 21, 2017 (GMT -0600)
Starke County

Weather History for KOXI - October, 2012

Change the Weather History Date:

Tuesday, October 9, 2012

  Actual Average (KSBN) Record (KSBN)
Temperature  
Mean Temperature 52 °F -  
Max Temperature 93 °F 62 °F 86 °F (1949)
Min Temperature 40 °F 45 °F 27 °F (1989)
Degree Days  
Heating Degree Days 13    
Growing Degree Days 2 (Base 50)    
Moisture  
Dew Point 35 °F    
Average Humidity 54    
Maximum Humidity 93    
Minimum Humidity 35    
Precipitation  
Precipitation 0.00 in - - ()
Sea Level Pressure  
Sea Level Pressure 29.96 in    
Wind  
Wind Speed 12 mph (SSW)    
Max Wind Speed 24 mph    
Max Gust Speed 32 mph    
Visibility 10 miles    
Events      
Averages and records for this station are not official NWS values.
T = Trace of Precipitation, MM = Missing Value Source: NWS Daily Summary

Daily Weather History Graph

Daily Weather History Graph

Search for Another Location

Airport or City:

Trip Planner

Search our weather history database for the weather conditions in past years. The results will help you decide how hot, cold, wet, or windy it might be!

Date:

Astronomy

Oct. 09, 2012 Rise Set
Actual Time 6:52 AM CDT 6:14 PM CDT
Civil Twilight 6:24 AM CDT 6:42 PM CDT
Nautical Twilight 5:52 AM CDT 7:14 PM CDT
Astronomical Twilight 5:20 AM CDT 7:46 PM CDT
Moon 12:24 AM CDT (10/9) 2:45 PM CDT (10/9)
Length of Visible Light 12h 17m
Length of Day
11h 22m
Last Quarter, 36% of the Moon is Illuminated
Oct 9
Last Quarter
Oct 15
New
Oct 21
First Quarter
Oct 29
Full
Nov 6
Last Quarter

Hourly Weather History & Observations

Time (CDT) Temp. Windchill Dew Point Humidity Pressure Visibility Wind Dir Wind Speed Gust Speed Precip Events Conditions
12:15 AM 42.3 °F 36.3 °F 28.2 °F 58% 30.07 in 10.0 mi South 10.4 mph - N/A   Clear
12:35 AM 42.1 °F 36.6 °F 28.4 °F 58% 30.06 in 10.0 mi South 9.2 mph - N/A   Clear
12:55 AM 41.5 °F 35.9 °F 28.9 °F 61% 30.06 in 10.0 mi South 9.2 mph - N/A   Clear
1:15 AM 41.5 °F 35.0 °F 29.3 °F 62% 30.06 in 10.0 mi South 11.5 mph - N/A   Clear
1:35 AM 41.9 °F 35.9 °F 29.5 °F 61% 30.06 in 10.0 mi South 10.4 mph - N/A   Clear
1:55 AM 41.9 °F 36.3 °F 29.8 °F 62% 30.07 in 10.0 mi South 9.2 mph - N/A   Clear
2:35 AM 41.5 °F 35.9 °F 30.2 °F 64% 30.06 in 10.0 mi South 9.2 mph - N/A   Clear
2:55 AM 40.8 °F 35.0 °F 30.4 °F 66% 30.05 in 10.0 mi South 9.2 mph - N/A   Clear
3:15 AM 41.0 °F 35.8 °F 30.9 °F 67% 30.05 in 10.0 mi South 8.1 mph - N/A   Clear
3:35 AM 41.2 °F 35.5 °F 31.1 °F 67% 30.04 in 10.0 mi South 9.2 mph - N/A   Clear
3:55 AM 41.2 °F 35.0 °F 31.1 °F 67% 30.04 in 10.0 mi South 10.4 mph - N/A   Clear
4:15 AM 41.2 °F 35.0 °F 31.1 °F 67% 30.04 in 10.0 mi South 10.4 mph - N/A   Clear
4:35 AM 41.0 °F 34.7 °F 31.1 °F 68% 30.03 in 10.0 mi South 10.4 mph - N/A   Clear
4:55 AM 41.2 °F 35.0 °F 31.3 °F 68% 30.03 in 10.0 mi South 10.4 mph - N/A   Clear
5:15 AM 41.2 °F 35.0 °F 31.5 °F 68% 30.03 in 10.0 mi South 10.4 mph - N/A   Clear
5:35 AM 41.4 °F 35.2 °F 31.6 °F 68% 30.03 in 10.0 mi South 10.4 mph - N/A   Clear
5:55 AM 41.2 °F 35.5 °F 31.8 °F 69% 30.03 in 10.0 mi South 9.2 mph - N/A   Clear
6:15 AM 41.0 °F 34.7 °F 31.8 °F 70% 30.03 in 10.0 mi South 10.4 mph - N/A   Clear
6:35 AM 41.0 °F 35.2 °F 32.0 °F 70% 30.04 in 10.0 mi South 9.2 mph - N/A   Clear
7:15 AM 40.6 °F 34.3 °F 32.0 °F 71% 30.04 in 10.0 mi SSW 10.4 mph - N/A   Clear
7:35 AM 41.2 °F 35.0 °F 32.2 °F 70% 30.03 in 10.0 mi SSW 10.4 mph - N/A   Clear
7:55 AM 42.4 °F 35.7 °F 32.7 °F 68% 30.03 in 10.0 mi South 12.7 mph 17.3 mph N/A   Clear
8:15 AM 44.1 °F 38.1 °F 33.3 °F 66% 30.03 in 10.0 mi SSW 11.5 mph - N/A   Clear
8:35 AM 45.9 °F 39.4 °F 33.8 °F 63% 30.03 in 10.0 mi SSW 15.0 mph - N/A   Clear
8:55 AM 47.8 °F - 34.3 °F 60% 30.03 in 10.0 mi South 11.5 mph - N/A   Clear
9:15 AM 50.4 °F - 35.1 °F 56% 30.02 in 10.0 mi SSW 15.0 mph 19.6 mph N/A   Clear
9:35 AM 52.3 °F - 35.4 °F 53% 30.02 in 10.0 mi SSW 13.8 mph - N/A   Clear
9:55 AM 53.8 °F - 35.6 °F 50% 30.01 in 10.0 mi SSW 16.1 mph 23.0 mph N/A   Clear
10:15 AM 55.6 °F - 36.0 °F 48% 30.01 in 10.0 mi SSW 16.1 mph 20.7 mph N/A   Clear
10:35 AM 57.0 °F - 36.1 °F 46% 30.01 in 10.0 mi SW 16.1 mph 19.6 mph N/A   Clear
10:55 AM 58.3 °F - 35.6 °F 43% 30.00 in 10.0 mi SW 21.9 mph 29.9 mph N/A   Clear
11:15 AM 59.0 °F - 35.4 °F 41% 30.00 in 10.0 mi SSW 18.4 mph 24.2 mph N/A   Clear
11:35 AM 60.1 °F - 35.4 °F 40% 29.99 in 10.0 mi SW 24.2 mph 28.8 mph N/A   Clear
11:55 AM 60.3 °F - 36.0 °F 40% 29.98 in 10.0 mi SSW 20.7 mph 28.8 mph N/A   Clear
12:15 PM 61.3 °F - 35.6 °F 38% 29.98 in 10.0 mi SW 20.7 mph 26.5 mph N/A   Clear
12:35 PM 62.4 °F - 35.4 °F 37% 29.96 in 10.0 mi SW 17.3 mph 25.3 mph N/A   Clear
12:55 PM 63.0 °F - 35.8 °F 36% 29.95 in 10.0 mi SSW 18.4 mph 27.6 mph N/A   Clear
1:15 PM 63.7 °F - 35.8 °F 35% 29.93 in 10.0 mi SW 16.1 mph 25.3 mph N/A   Clear
1:35 PM 64.0 °F - 36.0 °F 35% 29.93 in 10.0 mi SW 19.6 mph 26.5 mph N/A   Clear
1:55 PM 63.7 °F - 36.0 °F 36% 29.91 in 10.0 mi SSW 17.3 mph 32.2 mph N/A   Clear
2:15 PM 63.5 °F - 36.3 °F 36% 29.90 in 10.0 mi SSW 18.4 mph 31.1 mph N/A   Clear
2:35 PM 63.9 °F - 36.5 °F 36% 29.90 in 10.0 mi South 21.9 mph 25.3 mph N/A   Clear
2:55 PM 63.3 °F - 36.7 °F 37% 29.89 in 10.0 mi South 20.7 mph 26.5 mph N/A   Clear
3:15 PM 63.7 °F - 36.7 °F 37% 29.90 in 10.0 mi SSW 16.1 mph - N/A   Clear
3:35 PM 63.9 °F - 36.5 °F 36% 29.89 in 10.0 mi SSW 19.6 mph 26.5 mph N/A   Clear
4:15 PM 63.9 °F - 36.0 °F 36% 29.88 in 10.0 mi SSW 17.3 mph 27.6 mph N/A   Clear
4:35 PM 63.1 °F - 36.1 °F 37% 29.88 in 10.0 mi SSW 21.9 mph 27.6 mph N/A   Clear
4:55 PM 62.1 °F - 36.5 °F 39% 29.88 in 10.0 mi SSW 16.1 mph 21.9 mph N/A   Clear
5:15 PM 61.5 °F - 36.7 °F 40% 29.88 in 10.0 mi SSW 13.8 mph 25.3 mph N/A   Clear
5:35 PM 61.0 °F - 37.2 °F 41% 29.87 in 10.0 mi SSW 16.1 mph 23.0 mph N/A   Clear
5:55 PM 60.6 °F - 37.4 °F 42% 29.87 in 10.0 mi SSW 15.0 mph 23.0 mph N/A   Clear
6:15 PM 59.5 °F - 37.6 °F 44% 29.87 in 10.0 mi SSW 11.5 mph 17.3 mph N/A   Clear
6:35 PM 58.6 °F - 37.9 °F 46% 29.87 in 10.0 mi SSW 9.2 mph 17.3 mph N/A   Clear
6:55 PM 57.9 °F - 38.3 °F 48% 29.87 in 10.0 mi SSW 10.4 mph - N/A   Clear
7:15 PM 57.2 °F - 38.3 °F 49% 29.87 in 10.0 mi SSW 9.2 mph - N/A   Clear
7:35 PM 56.7 °F - 38.7 °F 51% 29.88 in 10.0 mi SSW 11.5 mph - N/A   Clear
7:55 PM 56.3 °F - 38.7 °F 52% 29.88 in 10.0 mi SSW 12.7 mph 18.4 mph N/A   Clear
8:15 PM 56.1 °F - 38.7 °F 52% 29.87 in 10.0 mi SSW 12.7 mph 16.1 mph N/A   Clear
8:35 PM 55.2 °F - 38.8 °F 54% 29.86 in 10.0 mi South 9.2 mph - N/A   Clear
8:55 PM 54.7 °F - 39.0 °F 56% 29.85 in 10.0 mi South 11.5 mph - N/A   Clear
9:15 PM 54.7 °F - 38.8 °F 55% 29.85 in 10.0 mi SSW 11.5 mph 17.3 mph N/A   Scattered Clouds
9:35 PM 54.7 °F - 39.2 °F 56% 29.85 in 10.0 mi SSW 10.4 mph 16.1 mph N/A   Scattered Clouds
9:55 PM 54.7 °F - 39.2 °F 56% 29.85 in 10.0 mi SSW 12.7 mph 17.3 mph N/A   Overcast
10:15 PM 54.9 °F - 39.2 °F 56% 29.85 in 10.0 mi SSW 13.8 mph - N/A   Overcast
10:35 PM 55.0 °F - 39.4 °F 56% 29.85 in 10.0 mi SSW 10.4 mph 18.4 mph N/A   Overcast
10:55 PM 55.0 °F - 39.7 °F 56% 29.87 in 10.0 mi WSW 11.5 mph - N/A   Overcast
11:15 PM 50.9 °F - 41.4 °F 70% 29.89 in 10.0 mi NNW 17.3 mph 28.8 mph N/A   Overcast
11:35 PM 46.0 °F 40.6 °F 43.0 °F 89% 29.91 in 7.0 mi NW 11.5 mph - N/A   Overcast
11:55 PM 45.5 °F 41.3 °F 43.5 °F 93% 29.90 in 10.0 mi NW 8.1 mph - N/A   Overcast